Boulder, CO

1:02 PM MST on February 25, 2017 (GMT -0700)
Boulder Muni, Boulder, CO

Weather History for KBDU - January, 2014

Change the Weather History Date:

Saturday, January 11, 2014

  Actual Average Record
Temperature  
Mean Temperature 46 °F -  
Max Temperature 59 °F - 59 °F (2014)
Min Temperature 33 °F - 12 °F (2016)
Degree Days  
Heating Degree Days 19    
Month to date heating degree days  
Cooling Degree Days 0    
Month to date cooling degree days  
Moisture  
Dew Point 21 °F    
Average Humidity 33    
Maximum Humidity 44    
Minimum Humidity 23    
Precipitation  
Precipitation 0.00 in - 0.00 in (2017)
Sea Level Pressure  
Sea Level Pressure 29.79 in    
Wind  
Wind Speed 14 mph (WSW)    
Max Wind Speed 34 mph    
Max Gust Speed 51 mph    
Visibility 10 miles    
Events      
T = Trace of Precipitation, MM = Missing Value Source: NWS Daily Summary

Daily Weather History Graph

Daily Weather History Graph

Search for Another Location

Airport or City:

Trip Planner

Search our weather history database for the weather conditions in past years. The results will help you decide how hot, cold, wet, or windy it might be!

Date:

Astronomy

Jan. 11, 2014 Rise Set
Actual Time 7:22 AM MST 4:55 PM MST
Civil Twilight 6:52 AM MST 5:25 PM MST
Nautical Twilight 6:18 AM MST 5:59 PM MST
Astronomical Twilight 5:46 AM MST 6:32 PM MST
Moon 1:41 PM MST (1/11) 3:29 AM MST (1/11)
Length of Visible Light 10h 33m
Length of Day
9h 33m
Waxing Gibbous, 83% of the Moon is Illuminated
Jan 11
Waxing Gibbous
Jan 15
Full
Jan 23
Last Quarter
Jan 30
New
Feb 6
First Quarter

Hourly Weather History & Observations

Time (MST) Temp. Windchill Dew Point Humidity Pressure Visibility Wind Dir Wind Speed Gust Speed Precip Events Conditions
12:12 AM 33.8 °F 26.4 °F 14.0 °F 44% 29.84 in 10.0 mi WNW 9.2 mph - N/A   Clear
12:33 AM 37.4 °F 28.5 °F 15.8 °F 41% 29.83 in 10.0 mi WNW 15.0 mph 18.4 mph N/A   Clear
12:53 AM 41.0 °F 31.4 °F 15.8 °F 36% 29.82 in 10.0 mi WNW 21.9 mph 34.5 mph N/A   Clear
1:12 AM 41.0 °F 32.2 °F 15.8 °F 36% 29.83 in 10.0 mi WNW 18.4 mph 29.9 mph N/A   Clear
1:33 AM 41.0 °F 30.7 °F 17.6 °F 39% 29.83 in 10.0 mi WNW 25.3 mph 36.8 mph N/A   Clear
1:52 AM 41.0 °F 30.9 °F 17.6 °F 39% 29.85 in 10.0 mi WNW 24.2 mph 35.7 mph N/A   Clear
2:12 AM 41.0 °F 31.4 °F 17.6 °F 39% 29.86 in 10.0 mi WNW 21.9 mph 35.7 mph N/A   Clear
2:32 AM 41.0 °F 32.5 °F 17.6 °F 39% 29.86 in 10.0 mi WNW 17.3 mph 32.2 mph N/A   Clear
2:52 AM 42.8 °F 34.0 °F 17.6 °F 36% 29.85 in 10.0 mi WNW 20.7 mph 34.5 mph N/A   Clear
3:13 AM 42.8 °F 34.5 °F 17.6 °F 36% 29.85 in 10.0 mi WNW 18.4 mph 40.3 mph N/A   Clear
3:33 AM 42.8 °F 34.5 °F 19.4 °F 39% 29.84 in 10.0 mi WNW 18.4 mph 28.8 mph N/A   Clear
3:52 AM 42.8 °F 35.4 °F 17.6 °F 36% 29.85 in 10.0 mi WNW 15.0 mph 43.7 mph N/A   Clear
4:13 AM 42.8 °F 34.0 °F 19.4 °F 39% 29.83 in 10.0 mi West 20.7 mph 36.8 mph N/A   Clear
4:32 AM 44.6 °F 35.9 °F 19.4 °F 37% 29.82 in 10.0 mi WNW 23.0 mph 43.7 mph N/A   Clear
4:52 AM 42.8 °F 37.5 °F 19.4 °F 39% 29.83 in 10.0 mi WNW 9.2 mph 20.7 mph N/A   Clear
5:12 AM 44.6 °F 40.7 °F 19.4 °F 37% 29.83 in 10.0 mi NW 6.9 mph 16.1 mph N/A   Clear
5:33 AM 42.8 °F 37.0 °F 19.4 °F 39% 29.84 in 10.0 mi ESE 10.4 mph 17.3 mph N/A   Clear
5:53 AM 42.8 °F 37.0 °F 19.4 °F 39% 29.85 in 10.0 mi SSE 10.4 mph - N/A   Clear
6:12 AM 44.6 °F 41.4 °F 19.4 °F 37% 29.86 in 10.0 mi East 5.8 mph - N/A   Clear
6:33 AM 42.8 °F 41.1 °F 19.4 °F 39% 29.88 in 10.0 mi West 3.5 mph - N/A   Clear
6:53 AM 44.6 °F 39.2 °F 21.2 °F 39% 29.88 in 10.0 mi WSW 10.4 mph 26.5 mph N/A   Clear
7:12 AM 44.6 °F 40.2 °F 21.2 °F 39% 29.86 in 10.0 mi SW 8.1 mph - N/A   Clear
7:33 AM 44.6 °F 39.7 °F 21.2 °F 39% 29.86 in 10.0 mi WSW 9.2 mph - N/A   Clear
7:53 AM 46.4 °F 41.9 °F 21.2 °F 37% 29.86 in 10.0 mi South 9.2 mph - N/A   Clear
8:12 AM 46.4 °F 43.5 °F 21.2 °F 37% 29.88 in 10.0 mi SW 5.8 mph - N/A   Clear
8:32 AM 48.2 °F - 21.2 °F 34% 29.88 in 10.0 mi West 16.1 mph 27.6 mph N/A   Clear
8:52 AM 50.0 °F - 21.2 °F 32% 29.88 in 10.0 mi SW 4.6 mph - N/A   Clear
9:11 AM 51.8 °F - 21.2 °F 30% 29.88 in 10.0 mi SW 12.7 mph 20.7 mph N/A   Clear
9:32 AM 51.8 °F - 21.2 °F 30% 29.89 in 10.0 mi SW 11.5 mph 20.7 mph N/A   Clear
9:53 AM 51.8 °F - 21.2 °F 30% 29.89 in 10.0 mi SW 19.6 mph 25.3 mph N/A   Clear
10:12 AM 53.6 °F - 21.2 °F 28% 29.89 in 10.0 mi West 13.8 mph 25.3 mph N/A   Clear
10:33 AM 46.4 °F 43.5 °F 23.0 °F 40% 29.90 in 10.0 mi North 5.8 mph - N/A   Clear
10:53 AM 46.4 °F 39.5 °F 21.2 °F 37% 29.89 in 10.0 mi West 17.3 mph 23.0 mph N/A   Clear
11:13 AM 51.8 °F - 21.2 °F 30% 29.87 in 10.0 mi West 20.7 mph 24.2 mph N/A   Clear
11:33 AM 53.6 °F - 23.0 °F 30% 29.85 in 10.0 mi West 26.5 mph 42.6 mph N/A   Clear
11:52 AM 53.6 °F - 23.0 °F 30% 29.84 in 10.0 mi West 25.3 mph 33.4 mph N/A   Clear
12:13 PM 55.4 °F - 23.0 °F 29% 29.82 in 10.0 mi East 11.5 mph 24.2 mph N/A   Clear
12:33 PM 55.4 °F - 21.2 °F 26% 29.80 in 10.0 mi SE 13.8 mph - N/A   Clear
12:52 PM 55.4 °F - 23.0 °F 29% 29.80 in 10.0 mi SSW 9.2 mph - N/A   Clear
1:13 PM 53.6 °F - 23.0 °F 30% 29.80 in 10.0 mi West 15.0 mph 32.2 mph N/A   Clear
1:33 PM 53.6 °F - 23.0 °F 30% 29.77 in 10.0 mi West 20.7 mph 38.0 mph N/A   Clear
1:52 PM 53.6 °F - 23.0 °F 30% 29.74 in 10.0 mi WSW 27.6 mph 47.2 mph N/A   Clear
2:11 PM 53.6 °F - 23.0 °F 30% 29.74 in 10.0 mi WSW 34.5 mph 50.6 mph N/A   Clear
2:33 PM 55.4 °F - 23.0 °F 29% 29.78 in 10.0 mi SW 12.7 mph 27.6 mph N/A   Clear
2:52 PM 55.4 °F - 21.2 °F 26% 29.77 in 10.0 mi SSW 16.1 mph 25.3 mph N/A   Clear
3:13 PM 55.4 °F - 23.0 °F 29% 29.75 in 10.0 mi West 8.1 mph 21.9 mph N/A   Clear
3:33 PM 57.2 °F - 21.2 °F 25% 29.73 in 10.0 mi SSW 24.2 mph 33.4 mph N/A   Clear
3:53 PM 59.0 °F - 21.2 °F 23% 29.74 in 10.0 mi SSW 16.1 mph 26.5 mph N/A   Clear
4:12 PM 59.0 °F - 21.2 °F 23% 29.73 in 10.0 mi SW 17.3 mph 23.0 mph N/A   Clear
4:33 PM 53.6 °F - 23.0 °F 30% 29.74 in 10.0 mi NNW 5.8 mph - N/A   Clear
4:52 PM 51.8 °F - 23.0 °F 33% 29.73 in 10.0 mi NW 5.8 mph - N/A   Clear
5:13 PM 53.6 °F - 23.0 °F 30% 29.72 in 10.0 mi Calm Calm - N/A   Clear
5:33 PM 51.8 °F - 21.2 °F 30% 29.73 in 10.0 mi WSW 4.6 mph - N/A   Clear
5:52 PM 53.6 °F - 21.2 °F 28% 29.72 in 10.0 mi WNW 6.9 mph - N/A   Clear
6:12 PM 51.8 °F - 21.2 °F 30% 29.73 in 10.0 mi WNW 10.4 mph - N/A   Clear
6:33 PM 51.8 °F - 21.2 °F 30% 29.72 in 10.0 mi West 6.9 mph - N/A   Clear
6:53 PM 53.6 °F - 21.2 °F 28% 29.72 in 10.0 mi WSW 10.4 mph 16.1 mph N/A   Clear
7:13 PM 53.6 °F - 21.2 °F 28% 29.73 in 10.0 mi SW 18.4 mph 21.9 mph N/A   Clear
7:32 PM 51.8 °F - 21.2 °F 30% 29.73 in 10.0 mi SSW 9.2 mph 23.0 mph N/A   Clear
7:52 PM 51.8 °F - 21.2 °F 30% 29.73 in 10.0 mi South 3.5 mph - N/A   Clear
8:13 PM 51.8 °F - 21.2 °F 30% 29.72 in 10.0 mi SW 8.1 mph - N/A   Clear
8:33 PM 51.8 °F - 21.2 °F 30% 29.72 in 10.0 mi SSW 10.4 mph 17.3 mph N/A   Clear
8:52 PM 51.8 °F - 21.2 °F 30% 29.72 in 10.0 mi West 4.6 mph - N/A   Clear
9:13 PM 51.8 °F - 21.2 °F 30% 29.71 in 10.0 mi WSW 5.8 mph 16.1 mph N/A   Clear
9:33 PM 50.0 °F - 21.2 °F 32% 29.70 in 10.0 mi WSW 10.4 mph 16.1 mph N/A   Clear
9:52 PM 50.0 °F - 21.2 °F 32% 29.70 in 10.0 mi SSW 6.9 mph - N/A   Clear
10:13 PM 48.2 °F - 21.2 °F 34% 29.69 in 10.0 mi SSE 3.5 mph - N/A   Clear
10:33 PM 50.0 °F - 21.2 °F 32% 29.67 in 10.0 mi NNW 5.8 mph - N/A   Clear
10:52 PM 42.8 °F 38.0 °F 21.2 °F 42% 29.66 in 10.0 mi WNW 8.1 mph - N/A   Clear
11:12 PM 48.2 °F - 19.4 °F 32% 29.66 in 10.0 mi WSW 10.4 mph 16.1 mph N/A   Clear
11:33 PM 48.2 °F - 21.2 °F 34% 29.64 in 10.0 mi NE 3.5 mph - N/A   Clear
11:53 PM 50.0 °F - 19.4 °F 30% 29.62 in 10.0 mi Calm Calm - N/A   Clear